Location: Oregon Star Party
(44.2935°N, 120.1332°W)
Time: 20:32:53
(UTC-08:00)

Amateur Radio Satellites - All Passes

Search period start: 21 February 2017 20:02
Search period end: 22 February 2017 20:02
Location: Oregon Star Party, 44.2935°N, 120.1332°W

Satellite Date Start Highest point End Downlink Frequencies (MHz)
Time Altitude Azimuth
CUTE 1.7 + AOD 2 21 Feb 20:20:11 20:21:01 10° 272° (W) 20:21:51 437.475
DELFI C3 21 Feb 20:21:51 20:25:33 39° 71° (ENE) 20:29:16 145.870
AO-73 21 Feb 20:22:47 20:27:08 58° 260° (W) 20:31:37 145.935
Oscar 11 21 Feb 20:34:59 20:39:12 47° 261° (W) 20:43:26 .
UWE-3 21 Feb 20:38:45 20:42:17 23° 267° (W) 20:45:55 435.000/436.395/437.385
HO-68 21 Feb 20:46:02 20:49:31 14° 273° (W) 20:53:03 435.675
UNISAT 6 21 Feb 20:48:32 20:49:46 11° 87° (E) 20:51:00 437.425
TIGRISAT 21 Feb 20:50:26 20:51:20 10° 87° (E) 20:52:14 435.000
STRAND 1 21 Feb 20:50:50 20:54:48 23° 298° (WNW) 20:58:44 437.568
FO-29 21 Feb 20:57:05 20:59:32 12° 80° (E) 21:01:55 435.910
YUBILEINY 21 Feb 21:08:05 21:16:33 50° 74° (ENE) 21:24:54 435.215
ZACube-1 21 Feb 21:09:35 21:12:42 19° 269° (W) 21:15:54 437.345
PRISM 21 Feb 21:50:13 21:54:17 73° 286° (WNW) 21:58:20 437.425
RS-15 21 Feb 21:50:39 22:01:04 30° 347° (NNW) 22:11:32 29.354- 29.394
ESTCUBE 1 21 Feb 21:56:24 22:00:29 34° 68° (ENE) 22:04:33 437.505/2401.250
SO-50 21 Feb 21:56:52 21:59:31 15° 110° (ESE) 22:02:09 436.795
DELFI C3 21 Feb 21:57:50 22:00:31 17° 268° (W) 22:03:11 145.870
UNISAT 6 21 Feb 22:22:21 22:27:04 84° 286° (WNW) 22:31:46 437.425
TIGRISAT 21 Feb 22:23:53 22:28:38 87° 287° (WNW) 22:33:19 435.000
EO-79 21 Feb 22:36:55 22:38:51 13° 90° (E) 22:40:45 145.935-145.965
FO-29 21 Feb 22:38:22 22:46:07 64° 100° (E) 22:53:14 435.910
VELOX 1 21 Feb 22:39:16 22:43:11 33° 68° (ENE) 22:47:06 145.980
DX 1 21 Feb 22:45:08 22:48:05 18° 63° (ENE) 22:51:04 434.975-435.025
O/OREOS (USA 219) 21 Feb 22:50:18 22:54:18 33° 105° (ESE) 22:58:20 437.305
POLYITAN 1 21 Feb 22:52:12 22:55:17 19° 92° (E) 22:58:21 437.675
QB50P2 21 Feb 22:54:48 22:58:08 21° 93° (E) 23:01:25 145.880/145.840
NANOSAT C BR1 21 Feb 22:55:32 22:58:35 19° 93° (E) 23:01:36 145.865
50 SAT 21 Feb 23:03:28 23:06:41 35° 71° (ENE) 23:09:55 437.505
UKube-1 21 Feb 23:04:55 23:08:09 21° 64° (ENE) 23:11:22 .
YUBILEINY 21 Feb 23:05:17 23:13:07 39° 275° (W) 23:20:54 435.215
SPROUT 21 Feb 23:16:42 23:20:53 63° 73° (ENE) 23:25:07 437.525
AIST 2D 21 Feb 23:30:38 23:34:14 89° 92° (E) 23:37:48 435.315
ESTCUBE 1 21 Feb 23:33:35 23:37:19 25° 266° (W) 23:41:05 437.505/2401.250
SO-50 21 Feb 23:34:46 23:39:27 72° 307° (NW) 23:44:05 436.795
BUGSAT 1 21 Feb 23:43:03 23:46:10 20° 93° (E) 23:49:16 437.445
PCSat 21 Feb 23:43:05 23:45:33 13° 31° (NNE) 23:48:02 145.827
UNISAT 6 22 Feb 00:01:36 00:03:00 11° 302° (WNW) 00:04:24 437.425
TIGRISAT 22 Feb 00:02:57 00:04:34 12° 302° (WNW) 00:06:10 435.000
DUCHIFAT 1 22 Feb 00:04:33 00:08:51 87° 279° (W) 00:13:06 145.980
RS-15 22 Feb 00:07:34 00:18:31 34° 22° (NNE) 00:29:13 29.354- 29.394
EO-79 22 Feb 00:10:45 00:15:01 63° 286° (WNW) 00:19:14 145.935-145.965
VELOX 1 22 Feb 00:16:02 00:19:40 25° 265° (W) 00:23:18 145.980
DX 1 22 Feb 00:19:46 00:23:56 47° 260° (W) 00:28:08 434.975-435.025
FO-29 22 Feb 00:23:58 00:30:33 31° 301° (WNW) 00:36:46 435.910
POLYITAN 1 22 Feb 00:27:11 00:31:16 42° 289° (WNW) 00:35:18 437.675
O/OREOS (USA 219) 22 Feb 00:29:53 00:33:43 27° 304° (NW) 00:37:36 437.305
QB50P2 22 Feb 00:30:04 00:34:01 36° 290° (WNW) 00:37:57 145.880/145.840
NANOSAT C BR1 22 Feb 00:30:26 00:34:28 42° 289° (WNW) 00:38:29 145.865
50 SAT 22 Feb 00:37:55 00:39:58 15° 267° (W) 00:42:02 437.505
UKube-1 22 Feb 00:39:53 00:43:55 39° 261° (W) 00:47:59 .
Oscar 19 22 Feb 00:46:58 00:51:21 28° 95° (E) 00:55:42 437.125/150
ITUPSAT 1 22 Feb 00:47:46 00:51:16 20° 62° (ENE) 00:54:46 437.325
SPROUT 22 Feb 00:55:24 00:57:14 12° 271° (W) 00:59:03 437.525
BEESAT 22 Feb 00:56:34 01:00:25 25° 64° (ENE) 01:04:16 436.000
Gurwin Techsat 1B 22 Feb 01:01:10 01:05:15 22° 92° (E) 01:09:17 435.225
BUGSAT 1 22 Feb 01:17:43 01:21:40 39° 290° (WNW) 01:25:37 437.445
SO-50 22 Feb 01:18:03 01:20:43 15° 327° (NNW) 01:23:22 436.795
PCSat 22 Feb 01:24:55 01:30:15 52° 54° (NE) 01:35:33 145.827
MOZHAYETS 4 22 Feb 01:51:10 01:55:07 28° 67° (ENE) 01:59:06
AO-7 22 Feb 01:57:26 02:01:32 14° 87° (E) 02:05:37 .
RS-15 22 Feb 02:21:05 02:33:31 75° 52° (NE) 02:45:26 29.354- 29.394
ITUPSAT 1 22 Feb 02:24:03 02:28:43 51° 260° (W) 02:33:27 437.325
Oscar 19 22 Feb 02:26:01 02:30:46 39° 292° (WNW) 02:35:28 437.125/150
BEESAT 22 Feb 02:33:28 02:37:58 41° 262° (W) 02:42:31 436.000
Gurwin Techsat 1B 22 Feb 02:40:19 02:45:29 52° 290° (WNW) 02:50:37 435.225
CUBESAT XI-V 22 Feb 02:41:33 02:44:29 17° 62° (ENE) 02:47:23 437.345
KKS-1 22 Feb 02:49:41 02:53:32 30° 67° (ENE) 02:57:26 437.445
ITAMSAT 1 22 Feb 02:51:08 02:56:05 40° 98° (E) 03:00:58 435.822/435.867
PCSat 22 Feb 03:08:58 03:13:18 25° 252° (WSW) 03:17:39 145.827
MOZHAYETS 4 22 Feb 03:28:01 03:32:11 32° 264° (W) 03:36:23
STARS 22 Feb 03:34:01 03:38:04 39° 70° (ENE) 03:42:10 437.465
M-CUBED/EXP-1 PRIME 22 Feb 03:42:09 03:45:16 40° 67° (ENE) 03:48:22 437.505
AO-7 22 Feb 03:47:22 03:55:43 73° 106° (ESE) 04:03:59 .
CUBESAT XI-V 22 Feb 04:16:45 04:21:22 61° 259° (WSW) 04:26:00 437.345
KKS-1 22 Feb 04:26:19 04:30:05 27° 264° (W) 04:33:53 437.445
ITAMSAT 1 22 Feb 04:30:55 04:35:22 29° 296° (WNW) 04:39:48 435.822/435.867
RS-15 22 Feb 04:34:31 04:45:01 36° 255° (WSW) 04:55:10 29.354- 29.394
STRAND 1 22 Feb 04:52:43 04:54:59 13° 56° (ENE) 04:57:14 437.568
XW-2F 22 Feb 05:10:14 05:11:55 12° 90° (E) 05:13:35 145.980 - 146.000
STARS 22 Feb 05:11:18 05:14:34 20° 267° (W) 05:17:52 437.465
XW-2D 22 Feb 05:12:14 05:14:20 14° 91° (E) 05:16:24 145.860 - 145.880
KAITUO 1B 22 Feb 05:12:19 05:13:16 11° 89° (E) 05:14:13 145.475/437.950
CUTE-I 22 Feb 05:12:51 05:16:20 17° 90° (E) 05:19:49 437.470
XW-2B 22 Feb 05:16:58 05:19:19 15° 91° (E) 05:21:39 145.730 - 145.750
AO-85 22 Feb 05:17:31 05:22:05 85° 122° (ESE) 05:26:20 145.980
M-CUBED/EXP-1 PRIME 22 Feb 05:18:53 05:19:59 11° 262° (W) 05:21:06 437.505
XW-2C 22 Feb 05:25:04 05:27:54 19° 93° (E) 05:30:42 145.795 - 145.815
LilacSat-2 22 Feb 05:37:33 05:40:55 28° 95° (E) 05:44:14 437.200
AO-7 22 Feb 05:40:57 05:47:48 30° 307° (NW) 05:54:38 .
NUDT-PHONESAT 22 Feb 05:49:41 05:53:04 30° 96° (E) 05:56:23 437.300
DOVE 4 22 Feb 05:57:58 06:02:29 54° 100° (E) 06:07:16 437.250
HO-68 22 Feb 06:20:54 06:25:39 19° 89° (E) 06:30:23 435.675
SO-50 22 Feb 06:24:46 06:28:29 24° 41° (NE) 06:32:11 436.795
CUTE 1.7 + AOD 2 22 Feb 06:25:55 06:27:18 11° 88° (E) 06:28:42 437.475
XW-2A 22 Feb 06:27:20 06:29:25 15° 92° (E) 06:31:28 145.665 - 145.685
STRAND 1 22 Feb 06:28:13 06:33:21 85° 74° (ENE) 06:38:33 437.568
XW-2F 22 Feb 06:42:39 06:46:22 50° 287° (WNW) 06:50:02 145.980 - 146.000
KAITUO 1B 22 Feb 06:43:56 06:47:40 57° 286° (WNW) 06:51:21 145.475/437.950
XW-2D 22 Feb 06:45:05 06:48:46 44° 288° (WNW) 06:52:25 145.860 - 145.880
XW-2B 22 Feb 06:50:06 06:53:43 40° 288° (WNW) 06:57:18 145.730 - 145.750
CUTE-I 22 Feb 06:51:31 06:56:52 67° 288° (WNW) 07:02:11 437.470
XW-2C 22 Feb 06:58:43 07:02:10 32° 290° (WNW) 07:05:35 145.795 - 145.815
BEESAT 3 22 Feb 06:59:06 07:02:54 56° 121° (ESE) 07:06:48 437.485
AO-85 22 Feb 07:00:18 07:02:59 16° 322° (NW) 07:05:35 145.980
PRISM 22 Feb 07:09:50 07:10:01 10° 59° (ENE) 07:10:13 437.425
LilacSat-2 22 Feb 07:12:00 07:15:05 23° 293° (WNW) 07:18:08 437.200
O/OREOS (USA 219) 22 Feb 07:20:35 07:22:32 12° 47° (NE) 07:24:28 437.305
NUDT-PHONESAT 22 Feb 07:23:59 07:26:49 21° 293° (WNW) 07:29:39 437.300
SEEDS 22 Feb 07:28:04 07:31:56 36° 97° (E) 07:35:46 437.485
AAUSAT CUBESAT 2 22 Feb 07:28:43 07:31:37 18° 92° (E) 07:34:30 437.432
BEESAT 2 22 Feb 07:29:26 07:33:14 49° 119° (ESE) 07:37:07 435.950
DOVE 4 22 Feb 07:36:42 07:39:51 19° 296° (WNW) 07:43:06 437.250
CUBEBUG 2 22 Feb 07:40:35 07:45:00 36° 96° (E) 07:49:22 437.445
UNISAT 6 22 Feb 07:48:51 07:50:44 12° 59° (ENE) 07:52:39 437.425
TIGRISAT 22 Feb 07:50:28 07:52:10 12° 59° (ENE) 07:53:55 435.000
XW-2A 22 Feb 07:59:09 08:02:19 33° 289° (WNW) 08:05:27 145.665 - 145.685
CUTE 1.7 + AOD 2 22 Feb 07:59:23 08:03:37 67° 285° (WNW) 08:07:46 437.475
SO-50 22 Feb 08:04:50 08:09:13 50° 241° (WSW) 08:13:32 436.795
Tancredo 1 22 Feb 08:05:40 08:07:10 13° 132° (SE) 08:08:39 437.200
HO-68 22 Feb 08:07:01 08:14:12 85° 288° (WNW) 08:21:22 435.675
AO-73 22 Feb 08:09:32 08:13:19 25° 94° (E) 08:17:02 145.935
STRAND 1 22 Feb 08:11:09 08:13:11 12° 272° (W) 08:15:15 437.568
Oscar 11 22 Feb 08:20:45 08:24:28 27° 95° (E) 08:28:08 .
UWE-3 22 Feb 08:25:23 08:30:04 66° 101° (E) 08:34:41 435.000/436.395/437.385
CUTE-I 22 Feb 08:34:40 08:35:54 11° 306° (NW) 08:37:09 437.470
BEESAT 3 22 Feb 08:38:01 08:40:51 19° 320° (NW) 08:43:44 437.485
PRISM 22 Feb 08:40:34 08:44:40 85° 260° (W) 08:48:46 437.425
FO-29 22 Feb 08:51:22 08:57:43 36° 62° (ENE) 09:04:33 435.910
ZACube-1 22 Feb 08:54:31 08:59:08 79° 103° (ESE) 09:03:39 437.345
O/OREOS (USA 219) 22 Feb 08:58:04 09:02:40 85° 67° (ENE) 09:07:16 437.305
AAUSAT CUBESAT 2 22 Feb 09:03:24 09:07:15 39° 289° (WNW) 09:11:03 437.432
SEEDS 22 Feb 09:04:14 09:07:25 21° 294° (WNW) 09:10:34 437.485
ISS 22 Feb 09:06:01 09:09:10 43° 142° (SE) 09:12:19 437.550
BEESAT 2 22 Feb 09:08:13 09:11:16 21° 318° (NW) 09:14:22 435.950
CUBEBUG 2 22 Feb 09:17:28 09:21:27 27° 294° (WNW) 09:25:25 437.445
UNISAT 6 22 Feb 09:22:17 09:26:45 82° 256° (WSW) 09:31:22 437.425
TIGRISAT 22 Feb 09:23:40 09:28:08 85° 257° (WSW) 09:32:45 435.000
EO-79 22 Feb 09:31:22 09:33:13 13° 61° (ENE) 09:35:05 145.935-145.965
DELFI C3 22 Feb 09:31:47 09:35:38 51° 100° (E) 09:39:26 145.870
Tancredo 1 22 Feb 09:39:44 09:43:01 90° 125° (SE) 09:46:17 437.200
AO-73 22 Feb 09:45:26 09:49:36 35° 291° (WNW) 09:53:42 145.935
POLYITAN 1 22 Feb 09:46:33 09:49:27 18° 64° (ENE) 09:52:23 437.675
QB50P2 22 Feb 09:49:06 09:52:14 20° 65° (ENE) 09:55:23 145.880/145.840
NANOSAT C BR1 22 Feb 09:49:26 09:52:16 18° 64° (ENE) 09:55:07 145.865
HO-68 22 Feb 09:56:13 10:00:56 19° 308° (NW) 10:05:40 435.675
Oscar 11 22 Feb 09:56:48 10:00:34 29° 292° (WNW) 10:04:18 .
UWE-3 22 Feb 10:03:11 10:05:59 16° 298° (WNW) 10:08:45 435.000/436.395/437.385
AIST 2D 22 Feb 10:06:27 10:09:46 38° 72° (ENE) 10:13:07 435.315
YUBILEINY 22 Feb 10:10:39 10:19:07 54° 90° (E) 10:27:35 435.215
ZACube-1 22 Feb 10:32:40 10:34:44 13° 300° (WNW) 10:36:47 437.345
BUGSAT 1 22 Feb 10:34:46 10:37:25 17° 64° (ENE) 10:40:06 437.445
FO-29 22 Feb 10:35:37 10:42:23 53° 262° (W) 10:49:53 435.910
O/OREOS (USA 219) 22 Feb 10:40:54 10:41:20 10° 264° (W) 10:41:46 437.305
ISS 22 Feb 10:42:35 10:45:41 36° 340° (NNW) 10:48:47 437.550
DUCHIFAT 1 22 Feb 10:57:25 11:01:35 83° 78° (ENE) 11:05:51 145.980
EO-79 22 Feb 11:04:13 11:08:25 70° 258° (WSW) 11:12:40 145.935-145.965
DELFI C3 22 Feb 11:07:53 11:10:01 14° 297° (WNW) 11:12:08 145.870
Tancredo 1 22 Feb 11:16:48 11:19:37 26° 347° (NNW) 11:22:25 437.200
POLYITAN 1 22 Feb 11:20:51 11:24:54 45° 261° (W) 11:29:01 437.675
ESTCUBE 1 22 Feb 11:23:21 11:27:47 59° 101° (E) 11:32:12 437.505/2401.250
NANOSAT C BR1 22 Feb 11:23:36 11:27:38 46° 261° (W) 11:31:44 145.865
QB50P2 22 Feb 11:23:48 11:27:46 39° 262° (W) 11:31:47 145.880/145.840
AIST 2D 22 Feb 11:41:17 11:43:11 14° 269° (W) 11:45:07 435.315
50 SAT 22 Feb 11:59:45 12:02:51 30° 97° (E) 12:05:56 437.505
VELOX 1 22 Feb 12:03:20 12:07:39 52° 100° (E) 12:11:58 145.980
Oscar 19 22 Feb 12:05:07 12:10:03 48° 70° (ENE) 12:14:59 437.125/150
DX 1 22 Feb 12:06:28 12:10:04 25° 95° (E) 12:13:40 434.975-435.025
AO-85 22 Feb 12:08:06 12:10:30 15° 38° (NE) 12:12:54 145.980
YUBILEINY 22 Feb 12:08:15 12:16:13 37° 291° (WNW) 12:24:14 435.215
BUGSAT 1 22 Feb 12:08:34 12:12:26 44° 261° (W) 12:16:23 437.445
ISS 22 Feb 12:20:07 12:22:46 22° 360° (N) 12:25:25 437.550
Gurwin Techsat 1B 22 Feb 12:23:30 12:28:25 41° 68° (ENE) 12:33:23 435.225
UKube-1 22 Feb 12:25:13 12:28:57 28° 96° (E) 12:32:41 .
ITAMSAT 1 22 Feb 12:35:37 12:37:09 11° 54° (NE) 12:38:40 435.822/435.867
SPROUT 22 Feb 12:36:26 12:40:46 83° 284° (WNW) 12:45:04 437.525
Tancredo 1 22 Feb 12:53:56 12:56:36 23° 7° (N) 12:59:16 437.200
AO-7 22 Feb 12:57:23 13:04:09 29° 53° (NE) 13:10:54 .
ESTCUBE 1 22 Feb 13:01:24 13:04:07 16° 298° (WNW) 13:06:50 437.505/2401.250
50 SAT 22 Feb 13:33:26 13:35:47 17° 294° (WNW) 13:38:07 437.505
BEESAT 3 22 Feb 13:39:06 13:39:53 10° 32° (NNE) 13:40:39 437.485
VELOX 1 22 Feb 13:40:49 13:43:43 17° 297° (WNW) 13:46:37 145.980
DX 1 22 Feb 13:42:24 13:46:17 32° 292° (WNW) 13:50:09 434.975-435.025
Oscar 19 22 Feb 13:45:36 13:49:36 23° 267° (W) 13:53:38 437.125/150
AO-85 22 Feb 13:47:28 13:51:22 72° 238° (WSW) 13:55:17 145.980
ISS 22 Feb 13:56:46 13:59:51 36° 20° (NNE) 14:02:56 437.550
UKube-1 22 Feb 14:01:14 14:04:56 28° 293° (WNW) 14:08:38 .
Gurwin Techsat 1B 22 Feb 14:03:57 14:08:28 28° 265° (W) 14:13:02 435.225
ITAMSAT 1 22 Feb 14:10:30 14:15:41 72° 73° (ENE) 14:20:54 435.822/435.867
ITUPSAT 1 22 Feb 14:22:54 14:27:20 35° 97° (E) 14:31:42 437.325
Tancredo 1 22 Feb 14:30:09 14:33:22 59° 27° (NNE) 14:36:32 437.200
BEESAT 22 Feb 14:31:35 14:36:10 44° 99° (E) 14:40:43 436.000
AO-7 22 Feb 14:47:46 14:56:09 77° 254° (WSW) 15:04:34 .
BEESAT 3 22 Feb 15:14:24 15:18:22 55° 52° (NE) 15:22:18 437.485
MOZHAYETS 4 22 Feb 15:20:46 15:25:17 51° 99° (E) 15:29:46
ISS 22 Feb 15:33:15 15:36:23 41° 218° (SW) 15:39:28 437.550
BEESAT 2 22 Feb 15:45:34 15:49:33 50° 51° (NE) 15:53:28 435.950
ITAMSAT 1 22 Feb 15:52:43 15:55:41 15° 270° (W) 15:58:40 435.822/435.867
ITUPSAT 1 22 Feb 16:00:57 16:05:01 28° 295° (WNW) 16:09:04 437.325
XW-2B 22 Feb 16:01:29 16:02:25 11° 62° (ENE) 16:03:22 145.730 - 145.750
Tancredo 1 22 Feb 16:06:58 16:09:24 20° 224° (SW) 16:11:49 437.200
PCSat 22 Feb 16:08:28 16:13:16 33° 111° (ESE) 16:18:06 145.827
XW-2C 22 Feb 16:08:56 16:10:49 13° 63° (ENE) 16:12:42 145.795 - 145.815
BEESAT 22 Feb 16:09:56 16:13:41 23° 296° (WNW) 16:17:25 436.000
CUBESAT XI-V 22 Feb 16:11:55 16:15:55 29° 95° (E) 16:19:53 437.345
KKS-1 22 Feb 16:14:41 16:19:01 48° 100° (E) 16:23:21 437.445
LilacSat-2 22 Feb 16:21:24 16:24:09 19° 66° (ENE) 16:26:56 437.200
NUDT-PHONESAT 22 Feb 16:31:13 16:33:52 19° 66° (ENE) 16:36:33 437.300
CUTE-I 22 Feb 16:35:45 16:40:28 33° 66° (ENE) 16:45:14 437.470
AO-7 22 Feb 16:45:34 16:50:13 16° 272° (W) 16:54:53 .
RS-15 22 Feb 16:46:25 16:57:01 40° 107° (ESE) 17:07:57 29.354- 29.394
HO-68 22 Feb 16:52:23 16:57:04 19° 52° (NE) 17:01:46 435.675
M-CUBED/EXP-1 PRIME 22 Feb 16:52:36 16:55:41 24° 102° (ESE) 16:58:56 437.505
BEESAT 3 22 Feb 16:53:11 16:55:33 15° 249° (WSW) 16:57:54 437.485
STARS 22 Feb 16:57:27 17:01:52 62° 101° (ESE) 17:06:15 437.465
MOZHAYETS 4 22 Feb 16:58:52 17:02:04 19° 297° (WNW) 17:05:15
DOVE 4 22 Feb 17:05:23 17:09:28 60° 74° (ENE) 17:13:35 437.250
CUTE 1.7 + AOD 2 22 Feb 17:20:39 17:22:02 11° 60° (ENE) 17:23:26 437.475
BEESAT 2 22 Feb 17:24:16 17:26:57 17° 248° (WSW) 17:29:37 435.950
XW-2F 22 Feb 17:24:30 17:28:19 88° 247° (WSW) 17:32:12 145.980 - 146.000
KAITUO 1B 22 Feb 17:24:58 17:28:45 79° 77° (ENE) 17:32:36 145.475/437.950
XW-2D 22 Feb 17:27:14 17:31:04 77° 258° (WSW) 17:34:57 145.860 - 145.880
XW-2B 22 Feb 17:32:13 17:36:03 69° 259° (WSW) 17:39:55 145.730 - 145.750
XW-2C 22 Feb 17:40:49 17:44:35 53° 260° (W) 17:48:23 145.795 - 145.815
CUBESAT XI-V 22 Feb 17:49:14 17:53:15 31° 292° (WNW) 17:57:16 437.345
PCSat 22 Feb 17:51:29 17:56:34 40° 310° (NW) 18:01:42 145.827
KKS-1 22 Feb 17:52:05 17:55:14 19° 297° (WNW) 17:58:23 437.445
LilacSat-2 22 Feb 17:54:37 17:58:12 35° 263° (W) 18:01:49 437.200
NUDT-PHONESAT 22 Feb 18:04:09 18:07:35 34° 263° (W) 18:11:03 437.300
CUTE-I 22 Feb 18:15:37 18:20:27 35° 263° (W) 18:25:21 437.470
AAUSAT CUBESAT 2 22 Feb 18:20:48 18:23:23 16° 64° (ENE) 18:25:58 437.432
SEEDS 22 Feb 18:21:04 18:24:49 31° 69° (ENE) 18:28:33 437.485
M-CUBED/EXP-1 PRIME 22 Feb 18:27:01 18:30:08 27° 296° (WNW) 18:33:26 437.505
XW-2A 22 Feb 18:31:28 18:34:51 83° 259° (W) 18:38:17 145.665 - 145.685
STARS 22 Feb 18:35:09 18:37:44 15° 299° (WNW) 18:40:16 437.465
HO-68 22 Feb 18:36:36 18:43:47 84° 72° (ENE) 18:51:00 435.675
STRAND 1 22 Feb 18:37:38 18:41:55 26° 94° (E) 18:46:10 437.568
CUBEBUG 2 22 Feb 18:40:05 18:44:04 34° 69° (ENE) 18:48:12 437.445
DOVE 4 22 Feb 18:46:07 18:47:38 12° 271° (W) 18:49:08 437.250
CUTE 1.7 + AOD 2 22 Feb 18:52:57 18:57:15 80° 260° (W) 19:01:33 437.475
RS-15 22 Feb 18:56:47 19:08:48 70° 311° (NW) 19:21:13 29.354- 29.394
AO-73 22 Feb 19:06:28 19:10:01 24° 66° (ENE) 19:13:38 145.935
Oscar 11 22 Feb 19:16:59 19:20:36 26° 67° (ENE) 19:24:15 .
UWE-3 22 Feb 19:23:26 19:27:48 61° 74° (ENE) 19:32:19 435.000/436.395/437.385
PCSat 22 Feb 19:40:14 19:41:32 11° 333° (NNW) 19:42:51 145.827
ZACube-1 22 Feb 19:51:14 19:55:39 73° 75° (ENE) 20:00:12 437.345
AAUSAT CUBESAT 2 22 Feb 19:54:25 19:58:28 49° 261° (W) 20:02:31 437.432
